FW3337 Weather Reports


Display with metric or nautical units.
time (UTC)temp
F
wind
direction
speed
MPH
gust
MPH
rain 1hr
in
rain 24hr
in
rain mn
in
humidity
%
barometer
mb
20260503054543 46 44 0.0 0.0 0.00 0.03 0.00 59 1010.6
20260503053037 46 44 0.0 0.0 0.00 0.03 0.00 58 1010.7
20260503051531 47 44 0.0 0.0 0.00 0.03 0.00 57 1010.8
20260503050030 47 44 0.0 2.0 0.00 0.03 0.00 53 1010.9
20260503044542 47 44 0.0 2.0 0.00 0.03 0.00 52 1011.1
20260503043038 48 44 0.0 0.0 0.00 0.03 0.00 53 1011.2
20260503041520 48 44 0.0 1.0 0.00 0.03 0.00 48 1011.2
20260503040019 49 44 0.0 2.0 0.00 0.03 0.03 46 1011.2
20260503034518 49 44 0.0 5.0 0.00 0.03 0.03 46 1011.2
20260503033018 49 313 1.0 5.0 0.00 0.03 0.03 45 1011.0
20260503031525 50 310 1.0 6.0 0.00 0.03 0.03 45 1010.9
20260503030017 50 305 2.0 5.0 0.00 0.03 0.03 45 1011.0
20260503024516 50 324 1.0 4.0 0.00 0.03 0.03 44 1010.9
20260503023015 51 289 0.0 4.0 0.00 0.03 0.03 44 1011.0
20260503021517 51 305 2.0 5.0 0.00 0.03 0.03 42 1011.1
20260503020015 51 301 1.0 5.0 0.00 0.03 0.03 42 1011.2
20260503014514 51 314 2.0 6.0 0.00 0.03 0.03 42 1011.1
20260503013015 52 303 2.0 5.0 0.00 0.03 0.03 40 1010.9
20260503011513 52 315 3.0 6.0 0.00 0.03 0.03 41 1010.9
20260503010012 52 295 0.0 3.0 0.00 0.03 0.03 43 1010.8
20260503004514 52 295 1.0 3.0 0.00 0.03 0.03 44 1010.6
20260503003012 52 295 1.0 3.0 0.00 0.03 0.03 43 1010.6
20260503001511 53 295 2.0 8.0 0.00 0.03 0.03 40 1010.6
20260503000014 53 305 3.0 8.0 0.00 0.03 0.03 41 1010.5
20260502234509 53 305 2.0 4.0 0.00 0.03 0.03 41 1010.5
20260502233008 54 307 1.0 5.0 0.00 0.03 0.03 41 1010.3
20260502231507 54 286 2.0 4.0 0.00 0.03 0.03 40 1010.2
20260502230006 55 304 1.0 4.0 0.00 0.03 0.03 40 1010.1
20260502224506 56 325 1.0 8.0 0.00 0.03 0.03 40 1009.9
20260502223017 56 299 2.0 8.0 0.00 0.03 0.03 39 1009.9
20260502221505 56 307 2.0 5.0 0.00 0.03 0.03 38 1009.8
20260502220005 58 307 2.0 8.0 0.00 0.03 0.03 36 1009.6
20260502214505 58 334 2.0 8.0 0.00 0.03 0.03 36 1009.5
20260502213004 58 329 2.0 5.0 0.00 0.03 0.03 38 1009.4
20260502211504 58 300 0.0 7.0 0.00 0.03 0.03 38 1009.3
20260502210002 59 261 1.0 6.0 0.00 0.03 0.03 35 1009.3
20260502204601 58 280 1.0 6.0 0.00 0.03 0.03 38 1009.2
20260502203059 58 324 2.0 6.0 0.00 0.03 0.03 37 1009.4
20260502201557 58 293 0.0 6.0 0.00 0.03 0.03 38 1009.5
20260502200124 58 301 1.0 6.0 0.00 0.03 0.03 40 1009.6
20260502194555 59 214 3.0 8.0 0.00 0.03 0.03 37 1009.8
20260502193053 59 305 2.0 9.0 0.00 0.03 0.03 41 1010.1
20260502191558 58 314 1.0 4.0 0.00 0.03 0.03 40 1010.4
20260502190050 58 329 3.0 6.0 0.00 0.03 0.03 41 1010.5
20260502184547 58 300 3.0 5.0 0.00 0.03 0.03 41 1010.5
20260502183049 58 250 2.0 5.0 0.00 0.03 0.03 39 1010.5
20260502181544 58 283 2.0 5.0 0.00 0.03 0.03 39 1010.6
20260502163045 55 57 1.0 5.0 0.00 0.03 0.03 55 1011.3
20260502161532 56 50 2.0 4.0 0.00 0.03 0.03 54 1011.4
20260502151544 51 295 1.0 8.0 0.00 0.03 0.03 68 1011.8
20260502123001 49 311 1.0 4.0 0.00 0.03 0.03 87 1011.7
20260502121557 49 309 3.0 9.0 0.00 0.03 0.03 87 1011.6
20260502114550 49 245 0.0 3.0 0.00 0.03 0.03 93 1011.9
20260502113052 48 321 0.0 0.0 0.00 0.03 0.03 94 1012.1
20260502111548 47 321 0.0 0.0 0.00 0.03 0.03 94 1011.9
20260502110049 46 321 0.0 0.0 0.00 0.03 0.03 95 1011.4
20260502104542 46 321 0.0 0.0 0.00 0.03 0.03 94 1011.3
20260502103041 46 321 0.0 0.0 0.00 0.03 0.03 94 1011.1
20260502101543 46 321 0.0 0.0 0.01 0.03 0.03 93 1011.2
20260502091534 48 321 0.0 0.0 0.01 0.02 0.02 91 1011.4
20260502071525 48 180 0.0 4.0 0.00 0.00 0.00 91 1011.0
20260502070038 48 87 0.0 3.0 0.00 0.00 0.00 93 1011.2
20260502064523 48 87 0.0 2.0 0.00 0.00 0.00 93 1011.1
20260502063034 48 87 0.0 2.0 0.00 0.00 0.00 93 1010.9